DW8847 Weather Reports


Display with metric or nautical units.
time (UTC)temp
F
wind
direction
speed
MPH
gust
MPH
rain 1hr
in
rain 24hr
in
rain mn
in
humidity
%
barometer
mb
20260902043033 66 34 0.0 2.0 0.00 0.00 0.00 80 1017.1
20260902041525 66 34 1.0 4.0 0.00 0.00 0.00 79 1016.9
20260902040024 66 34 0.0 4.0 0.00 0.00 0.00 80 1016.8
20260902034522 65 34 1.0 3.0 0.00 0.00 0.00 80 1016.9
20260902033020 66 34 1.0 3.0 0.00 0.00 0.00 79 1017.0
20260902031532 67 34 0.0 4.0 0.00 0.00 0.00 77 1017.0
20260902030018 67 18 3.0 5.0 0.00 0.00 0.00 77 1016.9
20260902024517 67 20 2.0 4.0 0.00 0.00 0.00 76 1016.8
20260902023028 68 19 1.0 3.0 0.00 0.00 0.00 75 1016.8
20260902021514 68 19 2.0 4.0 0.00 0.00 0.00 75 1016.9
20260902020023 68 19 2.0 3.0 0.00 0.00 0.00 75 1016.9
20260902014520 68 19 2.0 3.0 0.00 0.01 0.00 75 1016.9
20260902013012 68 19 2.0 4.0 0.00 0.01 0.00 74 1016.8
20260902011510 69 15 1.0 4.0 0.00 0.01 0.00 72 1016.9
20260902010011 69 24 2.0 4.0 0.00 0.01 0.00 72 1016.9
20260902004508 69 34 2.0 3.0 0.00 0.02 0.00 71 1017.0
20260902003006 69 32 1.0 5.0 0.00 0.02 0.00 70 1017.1
20260902001506 69 44 2.0 4.0 0.00 0.02 0.00 71 1017.2
20260902000004 69 24 1.0 3.0 0.00 0.02 0.00 71 1017.2
20260901234504 70 24 2.0 4.0 0.00 0.07 0.00 69 1017.3
20260901233001 70 25 2.0 5.0 0.00 0.07 0.00 70 1017.3
20260901231614 69 360 0.0 2.0 0.00 0.07 0.00 77 1017.3
20260901230110 69 360 0.0 2.0 0.00 0.07 0.00 79 1017.3
20260901224558 69 360 0.0 2.0 0.00 0.07 0.00 79 1017.1
20260901223056 69 360 0.0 2.0 0.00 0.07 0.00 78 1017.2
20260901221616 70 360 0.0 3.0 0.00 0.07 0.00 78 1017.1
20260901214552 69 347 0.0 2.0 0.00 0.07 0.07 80 1017.1
20260901213105 70 347 0.0 2.0 0.00 0.07 0.07 79 1017.1
20260901211551 70 347 0.0 2.0 0.00 0.07 0.07 78 1017.0
20260901210051 70 347 0.0 2.0 0.00 0.07 0.07 78 1016.9
20260901204602 71 347 0.0 2.0 0.00 0.07 0.07 78 1016.9
20260901203053 71 347 1.0 2.0 0.00 0.07 0.07 79 1016.8
20260901201555 71 347 0.0 2.0 0.00 0.07 0.07 78 1016.8
20260901200113 71 347 1.0 2.0 0.00 0.07 0.07 77 1016.6
20260901194604 71 347 0.0 2.0 0.00 0.07 0.07 76 1016.6
20260901193051 72 347 0.0 2.0 0.00 0.07 0.07 76 1016.5
20260901191623 72 347 0.0 2.0 0.00 0.07 0.07 76 1016.4
20260901190051 72 347 0.0 0.0 0.00 0.07 0.07 79 1016.3
20260901184546 72 347 0.0 2.0 0.00 0.07 0.07 79 1016.2
20260901183053 74 347 0.0 0.0 0.00 0.07 0.07 73 1016.1
20260901181552 74 347 0.0 0.0 0.00 0.07 0.07 71 1015.9
20260901180045 76 347 0.0 2.0 0.00 0.07 0.07 72 1015.7
20260901174546 79 347 0.0 0.0 0.00 0.07 0.07 65 1015.7
20260901173044 81 347 0.0 0.0 0.00 0.07 0.07 63 1015.7
20260901171549 83 347 0.0 0.0 0.00 0.07 0.07 59 1015.7
20260901170055 85 347 0.0 0.0 0.00 0.07 0.07 52 1015.8
20260901164543 86 347 0.0 0.0 0.00 0.07 0.07 51 1015.8
20260901163046 87 347 0.0 0.0 0.00 0.07 0.07 48 1015.9
20260901161541 87 347 0.0 1.0 0.00 0.07 0.07 46 1016.0
20260901154541 88 347 0.0 1.0 0.00 0.07 0.07 47 1016.0
20260901153046 87 347 0.0 1.0 0.00 0.07 0.07 47 1016.1
20260901151542 89 347 0.0 2.0 0.00 0.07 0.07 41 1016.1
20260901150045 86 347 0.0 2.0 0.00 0.07 0.07 41 1016.3
20260901144543 87 76 0.0 2.0 0.00 0.07 0.07 44 1016.4
20260901143038 86 76 0.0 2.0 0.00 0.07 0.07 43 1016.5
20260901141537 86 76 0.0 4.0 0.00 0.07 0.07 41 1016.5
20260901140104 86 44 1.0 4.0 0.00 0.07 0.07 45 1016.6
20260901134537 86 38 1.0 3.0 0.00 0.07 0.07 43 1016.7
20260901133034 86 85 0.0 3.0 0.00 0.07 0.07 41 1016.7
20260901131540 85 53 0.0 3.0 0.00 0.07 0.07 50 1016.8
20260901130038 87 122 0.0 2.0 0.00 0.07 0.07 43 1016.9
20260901124533 85 116 0.0 5.0 0.00 0.07 0.07 46 1017.1
20260901123033 85 69 1.0 5.0 0.00 0.07 0.07 43 1017.2
20260901121530 85 38 4.0 6.0 0.00 0.07 0.07 43 1017.3
20260901120028 85 17 1.0 6.0 0.00 0.07 0.07 43 1017.5
20260901114532 84 61 4.0 9.0 0.00 0.07 0.07 45 1017.6
20260901113030 84 98 1.0 6.0 0.00 0.07 0.07 45 1017.6
20260901111525 84 28 4.0 7.0 0.00 0.07 0.07 49 1017.8
20260901110023 83 28 4.0 8.0 0.00 0.07 0.07 47 1017.9
20260901104523 83 30 4.0 8.0 0.00 0.07 0.07 46 1018.0
20260901103020 81 57 4.0 8.0 0.00 0.07 0.07 49 1018.1
20260901101546 81 25 4.0 10.0 0.00 0.07 0.07 47 1018.2
20260901100018 81 46 2.0 9.0 0.00 0.07 0.07 52 1018.2
20260901094528 82 75 2.0 5.0 0.00 0.07 0.07 57 1018.2
20260901093013 80 360 3.0 9.0 0.00 0.07 0.07 58 1018.2
20260901091511 80 63 4.0 8.0 0.00 0.07 0.07 55 1018.3
20260901090011 79 28 3.0 7.0 0.00 0.07 0.07 58 1018.2
20260901084506 78 26 3.0 6.0 0.00 0.07 0.07 59 1018.2
20260901083002 77 39 3.0 8.0 0.00 0.07 0.07 61 1018.1
20260901081604 77 355 2.0 5.0 0.00 0.07 0.07 63 1018.0
20260901080158 75 28 2.0 4.0 0.00 0.07 0.07 67 1017.9
20260901074556 75 26 1.0 3.0 0.00 0.07 0.07 68 1017.8
20260901073055 75 26 1.0 4.0 0.00 0.07 0.07 67 1017.7
20260901071553 74 24 3.0 6.0 0.00 0.07 0.07 68 1017.5
20260901070105 74 20 5.0 8.0 0.00 0.07 0.07 66 1017.4
20260901064604 73 24 2.0 5.0 0.00 0.07 0.07 71 1017.4
20260901063057 72 25 3.0 5.0 0.00 0.07 0.07 72 1017.3
20260901061559 70 15 2.0 5.0 0.00 0.07 0.07 76 1017.3
20260901060042 69 14 2.0 5.0 0.00 0.07 0.07 78 1017.1
20260901054543 68 355 3.0 5.0 0.00 0.07 0.07 80 1017.0
20260901053039 66 44 0.0 2.0 0.00 0.07 0.07 84 1016.8
20260901051532 65 44 1.0 3.0 0.00 0.07 0.07 85 1016.6
20260901050029 64 46 0.0 2.0 0.00 0.07 0.07 86 1016.5
20260901044526 64 46 1.0 3.0 0.00 0.07 0.07 86 1016.3